[[{"header":{"parameterUnit":"m.s-1","parameterCategory":1,"la1":30.2991,"la2":30.254,"lo1":-89.0895,"lo2":-89.0444,"dy":0.0017,"dx":0.0017,"nx":28,"ny":28,"refTime":"2023-08-15T21:00:00:Z","depth":0,"parameterNumber":2,"parameterNumberName":"U-component_of_WINDS"},"data":[0,0,0,0,0,0,0,0,0,0,0,0,0,0,0,0,0,0,0,0,0,0,0,0,0,0,0,0,0,0,0,0,0,0,0,0,0,0,0,0,0,0,0,0,0,0,0,0,0,0,0,0,0,0,0,0,0,0,-1.953,-1.9531,0,-1.9569,-1.9569,-1.957,-1.9526,-1.9524,-1.9523,-1.9521,-1.9563,-1.9566,-1.9569,0,0,0,0,0,0,0,0,0,0,0,0,0,-1.9422,-1.9424,-1.953,-1.9531,-1.9531,-1.9569,-1.9569,-1.957,-1.9526,-1.9524,-1.9522,-1.9521,-1.9563,-1.9566,-1.9569,0,0,0,0,0,0,0,0,0,0,0,0,0,-1.9465,-1.9425,-1.953,-1.9514,-1.9513,-1.9569,-1.9569,-1.957,-1.9527,-1.9524,-1.9522,-1.952,-1.9562,-1.9565,-1.9569,-1.9644,0,0,-1.9582,-1.9583,0,0,0,0,0,0,0,0,-1.9463,-1.9469,-1.9516,-1.9515,-1.9514,-1.954,-1.9546,-1.9595,-1.9527,-1.9522,-1.9521,-1.9518,-1.9558,-1.9562,-1.9575,-1.9646,-1.9647,-1.9582,-1.9584,-1.9586,-1.9587,0,0,0,0,0,0,0,-1.946,-1.9468,-1.9546,-1.9517,-1.9516,-1.9506,-1.9509,-1.9555,-1.9553,-1.9522,-1.9519,-1.9524,-1.9557,-1.9571,-1.9575,-1.9648,-1.9582,-1.9585,-1.9588,-1.9589,-1.9781,-1.9784,0,0,0,0,0,0,-1.9458,-1.9465,-1.9544,-1.9547,-1.9482,-1.951,-1.9514,-1.9534,-1.9553,-1.9553,-1.9526,-1.9522,-1.9565,-1.9571,-1.9577,-1.9665,-1.9586,-1.959,-1.9592,-1.9779,-1.9782,-1.9785,0,0,0,0,0,0,-1.9456,-1.9466,-1.9543,-1.9505,-1.9514,-1.9514,-1.9538,-1.9536,-1.955,-1.9556,-1.9555,-1.9541,-1.9564,-1.9571,-1.9627,-1.9666,-1.9592,-1.9595,-1.9775,-1.978,-1.9783,-1.9842,0,0,0,0,0,0,-1.9453,-1.9465,-1.9493,-1.9506,-1.9516,-1.9592,-1.954,-1.9539,-1.9557,-1.9552,-1.9569,-1.957,-1.9562,-1.9621,-1.9631,-1.967,-1.9598,-1.9772,-1.9777,-1.9782,-1.9837,-1.9848,-1.9857,0,0,0,0,0,-1.945,-1.9509,-1.9495,-1.9505,-1.9551,-1.9595,-1.96,-1.959,-1.956,-1.9589,-1.9592,-1.9569,-1.966,-1.9627,-1.9638,-1.9679,-1.977,-1.9776,-1.9782,-1.9832,-1.9846,-1.9857,0,0,0,0,0,0,-1.9502,-1.951,-1.9495,-1.956,-1.9577,-1.9587,-1.9623,-1.9604,-1.9631,-1.9625,-1.9611,-1.9615,-1.9675,-1.9682,-1.9646,-1.9751,-1.971,-1.9718,-1.9745,-1.9757,-1.9767,-1.9765,-1.9602,0,0,0,0,0,-1.9521,-1.9555,-1.956,-1.9617,-1.9626,-1.9623,-1.9642,-1.9632,-1.9649,-1.9656,-1.9663,-1.9682,-1.9714,-1.9736,-1.9766,-1.9837,-1.984,-1.987,-1.988,-1.9889,-1.9897,-1.9935,-1.9948,-1.9805,-1.9805,-1.9805,0,0,-1.9561,-1.9569,-1.9592,-1.9628,-1.964,-1.9676,-1.9629,-1.967,-1.9696,-1.9662,-1.9716,-1.9721,-1.9741,-1.9805,-1.9833,-1.9813,-1.9937,-1.9896,-1.9903,-1.9906,-1.9942,-1.9956,-1.9968,-1.9809,-1.9808,-1.9808,0,0,-1.9652,-1.9662,-1.971,-1.9722,-1.974,-1.9737,-1.9749,-1.9762,-1.9764,-1.9817,-1.9792,-1.9824,-1.988,-1.9895,-1.991,-2.0005,-1.9986,-2.0016,-2.0069,-2.0107,-2.0118,-2.0128,-2.0163,-2.0175,-2.0023,-2.0023,-2.0023,0,-1.97,-1.9752,-1.9738,-1.9779,-1.9796,-1.9765,-1.9815,-1.9828,-1.9855,-1.9868,-1.9844,-1.9913,-1.9924,-1.9991,-2.0014,-2.0027,-2.004,-2.0014,-2.0117,-2.0127,-2.0136,-2.0169,-2.0182,-2.0027,-2.0026,-2.0026,-2.0026,0,-1.981,-1.9847,-1.9884,-1.991,-1.9931,-1.9976,-1.9969,-1.9992,-1.998,-1.998,-2.0034,-2.0045,-2.0077,-2.0092,-2.0081,-2.0158,-2.0144,-2.0119,-2.0077,-2.0154,-2.0184,-2.0197,-2.0032,-2.0031,-2.003,-2.0029,0,0,-1.9937,-1.9953,-1.9967,-1.9978,-1.9995,-2.0024,-2.0068,-2.0098,-2.0118,-2.0137,-2.0175,-2.0222,-2.0198,-2.0215,-2.0206,-2.0238,-2.0314,-2.0209,-2.0209,-2.0229,-2.0399,-2.0419,-2.0434,-2.03,-2.0302,-2.0304,-2.0398,0,-2.0029,-2.0104,-2.0092,-2.0165,-2.0199,-2.017,-2.0208,-2.0223,-2.0224,-2.0253,-2.0254,-2.0288,-2.0254,-2.0264,-2.0295,-2.0298,-2.0348,-2.0291,-2.0335,-2.0337,-2.0333,-2.0449,-2.0471,-2.0558,-2.041,-2.0412,-2.0413,0,-2.0147,-2.0169,-2.0246,-2.0257,-2.0271,-2.0305,-2.0332,-2.036,-2.0376,-2.0374,-2.0392,-2.0376,-2.0421,-2.0377,-2.0438,-2.04,-2.0417,-2.0421,-2.0424,-2.0429,-2.0381,-2.0459,-2.0586,-2.06,-2.0432,-2.043,-2.0429,0,-2.0232,-2.0282,-2.0334,-2.0345,-2.0359,-2.0384,-2.0391,-2.0404,-2.0423,-2.0446,-2.0458,-2.0487,-2.0502,-2.0525,-2.0517,-2.0486,-2.058,-2.0536,-2.0581,-2.0581,-2.0603,-2.0602,-2.0737,-2.0613,-2.0612,-2.0612,-2.0612,0,-2.0337,-2.0385,-2.0373,-2.0405,-2.0458,-2.0443,-2.0496,-2.05,-2.0512,-2.0545,-2.0521,-2.0553,-2.054,-2.0571,-2.0565,-2.0617,-2.0624,-2.0624,-2.0623,-2.0627,-2.0627,-2.0639,-2.0634,-2.0616,-2.0615,-2.0614,-2.0614,0,-2.0443,-2.0436,-2.0491,-2.0499,-2.0502,-2.0541,-2.0549,-2.0579,-2.0577,-2.0619,-2.0628,-2.0626,-2.066,-2.0654,-2.0693,-2.0689,-2.0754,-2.0744,-2.0749,-2.0747,-2.0793,-2.0789,-2.094,-2.096,-2.0822,-2.0824,-2.0825,0,-2.0511,-2.0547,-2.0559,-2.0578,-2.0587,-2.0619,-2.0638,-2.0624,-2.0645,-2.0665,-2.0694,-2.0726,-2.0751,-2.0808,-2.0811,-2.084,-2.0832,-2.0882,-2.0836,-2.084,-2.0834,-2.0832,-2.0836,-2.0892,-2.0894,-2.0895,-2.0896,0,-2.0632,-2.0627,-2.0654,-2.068,-2.0703,-2.0723,-2.0741,-2.0759,-2.0747,-2.0771,-2.0806,-2.0825,-2.0864,-2.0897,-2.0924,-2.0932,-2.0913,-2.091,-2.0923,-2.0929,-2.093,-2.0931,-2.0775,-2.0907,-2.0906,-2.0906,-2.0905,-2.0904,-2.0722,-2.0752,-2.0765,-2.0796,-2.0808,-2.0825,-2.0854,-2.0855,-2.0884,-2.0914,-2.0904,-2.0944,-2.0958,-2.0993,-2.1004,-2.1035,-2.1016,-2.1034,-2.1038,-2.1043,-2.1049,-2.0924,-2.104,-2.1039,-2.1039,-2.1039,-2.1039,0,-2.0843,-2.0849,-2.0878,-2.0903,-2.0927,-2.0905,-2.0923,-2.0946,-2.0981,-2.0996,-2.1021,-2.1061,-2.1092,-2.1096,-2.1126,-2.115,-2.1142,-2.1159,-2.1157,-2.116,-2.1064,-2.1051,-2.1165,-2.1165,-2.1165,-2.1165,-2.1165,-2.1164,-2.0909,-2.096,-2.0956,-2.1012,-2.1018,-2.1056,-2.1069,-2.1084,-2.1096,-2.1141,-2.1167,-2.1169,-2.118,-2.121,-2.1238,-2.1238,-2.1251,-2.1271,-2.1268,-2.1179,-2.1166,-2.1154,-2.1142,-2.1273,-2.1274,-2.1361,-2.1362,-2.1363]},{"header":{"parameterUnit":"m.s-1","parameterCategory":1,"la1":30.2991,"la2":30.254,"lo1":-89.0895,"lo2":-89.0444,"dy":0.0017,"dx":0.0017,"nx":28,"ny":28,"refTime":"2023-08-15T21:00:00:Z","depth":0,"parameterNumber":3,"parameterNumberName":"V-component_of_WINDS"},"data":[0,0,0,0,0,0,0,0,0,0,0,0,0,0,0,0,0,0,0,0,0,0,0,0,0,0,0,0,0,0,0,0,0,0,0,0,0,0,0,0,0,0,0,0,0,0,0,0,0,0,0,0,0,0,0,0,0,0,-4.0678,-4.0679,0,-4.072,-4.0721,-4.0721,-4.0687,-4.0685,-4.0684,-4.0683,-4.0723,-4.0725,-4.0727,0,0,0,0,0,0,0,0,0,0,0,0,0,-4.0565,-4.0567,-4.0678,-4.0679,-4.0679,-4.072,-4.0721,-4.0721,-4.0687,-4.0685,-4.0684,-4.0682,-4.0722,-4.0725,-4.0728,0,0,0,0,0,0,0,0,0,0,0,0,0,-4.0611,-4.0568,-4.0678,-4.0667,-4.0666,-4.072,-4.0721,-4.0722,-4.0687,-4.0685,-4.0683,-4.0681,-4.0721,-4.0724,-4.0728,-4.0794,0,0,-4.0739,-4.0741,0,0,0,0,0,0,0,0,-4.0608,-4.0615,-4.0668,-4.0668,-4.0667,-4.0696,-4.0696,-4.0746,-4.0688,-4.0679,-4.0683,-4.068,-4.0715,-4.0719,-4.0732,-4.0796,-4.0797,-4.0739,-4.0742,-4.0743,-4.0744,0,0,0,0,0,0,0,-4.0605,-4.0613,-4.0695,-4.0669,-4.0668,-4.0659,-4.0663,-4.0705,-4.0709,-4.068,-4.0678,-4.0683,-4.0715,-4.0728,-4.0733,-4.0798,-4.0739,-4.0742,-4.0745,-4.0746,-4.0918,-4.092,0,0,0,0,0,0,-4.0604,-4.0611,-4.0693,-4.0696,-4.0632,-4.0663,-4.0668,-4.0689,-4.0708,-4.0709,-4.0685,-4.0681,-4.0723,-4.0728,-4.0734,-4.0812,-4.0743,-4.0746,-4.0749,-4.0915,-4.0918,-4.0921,0,0,0,0,0,0,-4.0601,-4.0611,-4.0692,-4.0653,-4.0662,-4.0667,-4.0692,-4.0691,-4.0705,-4.0712,-4.0712,-4.0699,-4.0722,-4.0729,-4.0779,-4.0813,-4.0748,-4.0751,-4.0913,-4.0916,-4.092,-4.097,0,0,0,0,0,0,-4.0598,-4.0611,-4.0636,-4.0654,-4.0665,-4.0738,-4.0694,-4.0693,-4.0712,-4.0707,-4.0725,-4.0726,-4.0721,-4.0774,-4.0783,-4.0817,-4.0754,-4.091,-4.0914,-4.0918,-4.0965,-4.0975,-4.0983,0,0,0,0,0,-4.0594,-4.0648,-4.0638,-4.0648,-4.0697,-4.074,-4.0746,-4.074,-4.0714,-4.074,-4.0745,-4.0725,-4.0808,-4.078,-4.0789,-4.0825,-4.0907,-4.0913,-4.0918,-4.0961,-4.0973,-4.0983,0,0,0,0,0,0,-4.0633,-4.065,-4.0639,-4.07,-4.0719,-4.0734,-4.0766,-4.0752,-4.0777,-4.0772,-4.0762,-4.0767,-4.082,-4.0827,-4.0795,-4.089,-4.0854,-4.0861,-4.0883,-4.0894,-4.0903,-4.09,-4.0757,0,0,0,0,0,-4.0649,-4.0683,-4.0696,-4.0749,-4.0759,-4.0761,-4.0779,-4.0773,-4.0791,-4.0799,-4.0807,-4.0825,-4.0855,-4.0875,-4.0903,-4.0966,-4.0969,-4.0995,-4.1004,-4.1011,-4.1018,-4.1052,-4.1064,-4.0939,-4.0939,-4.0938,0,0,-4.0682,-4.0695,-4.0717,-4.0757,-4.0771,-4.0805,-4.0768,-4.0806,-4.0831,-4.0804,-4.0853,-4.086,-4.0879,-4.0936,-4.0962,-4.0944,-4.1053,-4.1018,-4.1024,-4.1027,-4.1059,-4.107,-4.1081,-4.0942,-4.0942,-4.0941,0,0,-4.076,-4.0773,-4.0819,-4.0834,-4.0856,-4.0857,-4.0868,-4.0885,-4.0889,-4.0938,-4.0919,-4.0948,-4.1,-4.1015,-4.1029,-4.1113,-4.1096,-4.1123,-4.1169,-4.1202,-4.1212,-4.122,-4.125,-4.1261,-4.1129,-4.1129,-4.1129,0,-4.0797,-4.085,-4.0844,-4.0884,-4.0902,-4.088,-4.0926,-4.0941,-4.097,-4.0982,-4.0962,-4.1027,-4.1039,-4.1099,-4.112,-4.1132,-4.1144,-4.112,-4.1211,-4.122,-4.1228,-4.1256,-4.1267,-4.1132,-4.1132,-4.1132,-4.1131,0,-4.0895,-4.0932,-4.0967,-4.0997,-4.1019,-4.1061,-4.1061,-4.1083,-4.1075,-4.1078,-4.1129,-4.1142,-4.1172,-4.1186,-4.1178,-4.1245,-4.1234,-4.1213,-4.1176,-4.1243,-4.1269,-4.128,-4.1137,-4.1136,-4.1135,-4.1134,0,0,-4.0998,-4.1026,-4.1038,-4.1052,-4.1075,-4.1103,-4.1145,-4.1176,-4.1195,-4.1216,-4.125,-4.1295,-4.1276,-4.1292,-4.1286,-4.1315,-4.1381,-4.129,-4.129,-4.1307,-4.1456,-4.1472,-4.1485,-4.137,-4.1372,-4.1374,-4.1454,0,-4.1077,-4.1151,-4.1147,-4.1216,-4.125,-4.123,-4.1266,-4.1284,-4.1288,-4.1316,-4.132,-4.1352,-4.1324,-4.1334,-4.1362,-4.1367,-4.1411,-4.1361,-4.1401,-4.1403,-4.1397,-4.1499,-4.1515,-4.1591,-4.1465,-4.1467,-4.1468,0,-4.1179,-4.1205,-4.1278,-4.1297,-4.1311,-4.1343,-4.1372,-4.14,-4.1419,-4.1419,-4.1438,-4.1427,-4.1468,-4.1431,-4.1487,-4.1454,-4.147,-4.1475,-4.1477,-4.1481,-4.1439,-4.1505,-4.1615,-4.1627,-4.1484,-4.1483,-4.1482,0,-4.1247,-4.13,-4.1351,-4.1363,-4.1386,-4.141,-4.142,-4.1437,-4.1456,-4.148,-4.1493,-4.1521,-4.1536,-4.1558,-4.1555,-4.1528,-4.1612,-4.1575,-4.1613,-4.1614,-4.1632,-4.1631,-4.1747,-4.1642,-4.1642,-4.1642,-4.1642,0,-4.1335,-4.1381,-4.1382,-4.1413,-4.1463,-4.1458,-4.1507,-4.1514,-4.153,-4.1561,-4.1545,-4.1575,-4.1569,-4.1598,-4.1595,-4.1642,-4.1649,-4.1651,-4.1649,-4.1652,-4.1652,-4.1662,-4.1657,-4.1645,-4.1644,-4.1644,-4.1643,0,-4.142,-4.1422,-4.1476,-4.1494,-4.1499,-4.1535,-4.155,-4.1579,-4.1582,-4.1622,-4.1631,-4.1635,-4.1669,-4.1668,-4.1706,-4.1704,-4.1762,-4.1754,-4.1756,-4.1754,-4.1793,-4.179,-4.192,-4.1936,-4.1821,-4.1823,-4.1823,0,-4.1476,-4.1511,-4.1532,-4.1553,-4.1566,-4.1599,-4.1619,-4.1614,-4.1636,-4.1661,-4.1686,-4.1719,-4.1745,-4.1799,-4.1805,-4.1834,-4.1827,-4.1871,-4.1831,-4.1833,-4.1828,-4.1826,-4.1829,-4.1878,-4.188,-4.1881,-4.1882,0,-4.1576,-4.1576,-4.1606,-4.1636,-4.1661,-4.1685,-4.1706,-4.1724,-4.1722,-4.1746,-4.1781,-4.1801,-4.1841,-4.1873,-4.1901,-4.191,-4.1896,-4.1894,-4.1905,-4.1908,-4.1907,-4.1908,-4.1777,-4.1891,-4.189,-4.1889,-4.1889,-4.1889,-4.1648,-4.1678,-4.1698,-4.1732,-4.1748,-4.1769,-4.1798,-4.1805,-4.1834,-4.1867,-4.1863,-4.1902,-4.192,-4.1956,-4.1968,-4.1998,-4.1982,-4.1997,-4.2001,-4.2005,-4.201,-4.1903,-4.2003,-4.2003,-4.2002,-4.2002,-4.2002,0,-4.1747,-4.1759,-4.1791,-4.1822,-4.1849,-4.1834,-4.1858,-4.188,-4.1916,-4.1935,-4.1961,-4.2001,-4.2033,-4.2041,-4.2071,-4.2094,-4.2088,-4.2102,-4.21,-4.2102,-4.2022,-4.201,-4.2106,-4.2106,-4.2106,-4.2106,-4.2106,-4.2106,-4.1801,-4.1852,-4.1854,-4.1912,-4.1924,-4.1963,-4.1978,-4.1997,-4.2012,-4.2058,-4.2085,-4.2091,-4.2105,-4.2137,-4.2165,-4.2166,-4.2178,-4.2195,-4.2194,-4.2118,-4.2108,-4.2098,-4.2087,-4.2197,-4.2198,-4.2272,-4.2272,-4.2273]}]]